Location: Sungai Laei
(2.6000°N, 113.7167°E)
Time: 10:10:00
(UTC+00:00)

Lacrosse 4 Rocket - Pass Details

Date: 22 May 2022
Orbit: 541 x 611 km, 68.0° (Epoch: 06 July)

Event Time Altitude Azimuth Distance (km) Brightness Sun altitude
Exits shadow 20:24:16 35° 355° (N) 967 2.6 -26.3°
Drops below altitude 10° 20:26:54 10° 10° (N) 1,920 4.5 -25.7°
Sets 20:29:08 0° 13° (NNE) 2,808 5.4 -25.2°
